Location: Dunedin
(45.8670°S, 170.5000°E)
Time: 01:12:03
(UTC+13:00)

Cosmos 1633 - Pass Details

Date: 24 January 2019
Orbit: 466 x 485 km, 82.5° (Epoch: 19 February)

Event Time Altitude Azimuth Distance (km) Brightness Sun altitude
Rises 23:11:25 0° 194° (SSW) 2,557 7.5 -15.7°
Reaches altitude 10° 23:13:34 10° 199° (SSW) 1,671 6.4 -15.9°
Maximum altitude 23:17:07 50° 274° (W) 619 3.2 -16.3°
Enters shadow 23:19:15 21° 342° (NNW) 1,118 4.1 -16.5°
